| time (UTC) | temp F | wind direction | speed knots | gust knots | rain 1hr in | rain 24hr in | rain mn in | humidity % | barometer mb |
| 20260506192441 | 67 | 250 | 3.5 | 7.0 | 0.00 | 0.00 | 0.00 | 74 | 1010.2 |
| 20260506191938 | 67 | 293 | 2.6 | 6.1 | 0.00 | 0.00 | 0.00 | 74 | 1010.3 |
| 20260506191434 | 67 | 211 | 1.7 | 7.0 | 0.00 | 0.00 | 0.00 | 74 | 1010.4 |
| 20260506190931 | 66 | 239 | 9.6 | 11.3 | 0.00 | 0.00 | 0.00 | 74 | 1010.4 |
| 20260506190428 | 66 | 260 | 7.8 | 11.3 | 0.00 | 0.00 | 0.00 | 74 | 1010.3 |
| 20260506185925 | 66 | 253 | 4.3 | 6.1 | 0.00 | 0.00 | 0.00 | 75 | 1010.2 |
| 20260506185422 | 66 | 153 | 3.5 | 8.7 | 0.00 | 0.00 | 0.00 | 75 | 1010.4 |
| 20260506184919 | 66 | 160 | 5.2 | 9.6 | 0.00 | 0.00 | 0.00 | 75 | 1010.5 |
| 20260506184416 | 66 | 83 | 2.6 | 6.1 | 0.00 | 0.00 | 0.00 | 76 | 1010.5 |
| 20260506183913 | 65 | 122 | 1.7 | 2.6 | 0.00 | 0.00 | 0.00 | 77 | 1010.7 |
| 20260506183408 | 65 | 250 | 0.9 | 6.1 | 0.00 | 0.00 | 0.00 | 78 | 1010.8 |
| 20260506182906 | 66 | 217 | 7.8 | 14.8 | 0.00 | 0.00 | 0.00 | 75 | 1010.9 |
| 20260506182403 | 67 | 148 | 1.7 | 11.3 | 0.00 | 0.00 | 0.00 | 72 | 1010.8 |
| 20260506181900 | 67 | 186 | 8.7 | 14.8 | 0.00 | 0.00 | 0.00 | 71 | 1010.7 |
| 20260506181358 | 67 | 240 | 5.2 | 9.6 | 0.00 | 0.00 | 0.00 | 71 | 1010.8 |
| 20260506180855 | 67 | 134 | 5.2 | 7.8 | 0.00 | 0.00 | 0.00 | 70 | 1010.7 |
| 20260506180351 | 67 | 126 | 1.7 | 8.7 | 0.00 | 0.00 | 0.00 | 70 | 1010.7 |
| 20260506175848 | 67 | 137 | 0.9 | 12.2 | 0.00 | 0.00 | 0.00 | 70 | 1010.6 |
| 20260506175344 | 67 | 193 | 6.1 | 9.6 | 0.00 | 0.00 | 0.00 | 70 | 1011.0 |
| 20260506174841 | 67 | 216 | 1.7 | 7.0 | 0.00 | 0.00 | 0.00 | 70 | 1010.8 |
| 20260506174339 | 67 | 175 | 2.6 | 13.9 | 0.00 | 0.00 | 0.00 | 70 | 1010.8 |
| 20260506173836 | 67 | 259 | 7.8 | 8.7 | 0.00 | 0.00 | 0.00 | 70 | 1010.9 |
| 20260506173333 | 67 | 283 | 2.6 | 8.7 | 0.00 | 0.00 | 0.00 | 71 | 1010.8 |
| 20260506172830 | 67 | 95 | 3.5 | 5.2 | 0.00 | 0.00 | 0.00 | 72 | 1011.2 |
| 20260506172327 | 67 | 175 | 4.3 | 7.8 | 0.00 | 0.00 | 0.00 | 71 | 1011.1 |
| 20260506171824 | 67 | 175 | 5.2 | 8.7 | 0.00 | 0.00 | 0.00 | 72 | 1011.2 |
| 20260506171321 | 67 | 151 | 2.6 | 5.2 | 0.00 | 0.00 | 0.00 | 72 | 1011.0 |
| 20260506170819 | 68 | 74 | 7.8 | 13.0 | 0.00 | 0.00 | 0.00 | 70 | 1011.1 |
| 20260506170314 | 68 | 285 | 3.5 | 7.0 | 0.00 | 0.00 | 0.00 | 70 | 1011.2 |
| 20260506165814 | 68 | 165 | 6.1 | 8.7 | 0.00 | 0.00 | 0.00 | 69 | 1011.1 |
| 20260506165311 | 69 | 165 | 9.6 | 12.2 | 0.00 | 0.00 | 0.00 | 68 | 1010.8 |
| 20260506164807 | 70 | 219 | 6.1 | 9.6 | 0.00 | 0.00 | 0.00 | 67 | 1011.2 |
| 20260506164304 | 69 | 205 | 3.5 | 7.0 | 0.00 | 0.00 | 0.00 | 69 | 1011.3 |
| 20260506163801 | 68 | 178 | 6.1 | 11.3 | 0.00 | 0.00 | 0.00 | 67 | 1011.5 |
| 20260506163256 | 68 | 156 | 2.6 | 3.5 | 0.00 | 0.00 | 0.00 | 69 | 1011.6 |
| 20260506162752 | 68 | 243 | 7.0 | 11.3 | 0.00 | 0.00 | 0.00 | 68 | 1011.8 |
| 20260506162250 | 68 | 102 | 2.6 | 7.0 | 0.00 | 0.00 | 0.00 | 69 | 1011.8 |
| 20260506161747 | 68 | 98 | 0.0 | 3.5 | 0.00 | 0.00 | 0.00 | 70 | 1012.0 |
| 20260506161244 | 68 | 236 | 2.6 | 3.5 | 0.00 | 0.00 | 0.00 | 68 | 1012.2 |
| 20260506160742 | 69 | 340 | 2.6 | 5.2 | 0.00 | 0.00 | 0.00 | 67 | 1012.4 |
| 20260506160238 | 69 | 226 | 1.7 | 2.6 | 0.00 | 0.00 | 0.00 | 67 | 1012.4 |
| 20260506155737 | 68 | 148 | 0.9 | 3.5 | 0.00 | 0.00 | 0.00 | 68 | 1012.5 |
| 20260506155233 | 68 | 222 | 2.6 | 6.1 | 0.00 | 0.00 | 0.00 | 67 | 1012.2 |
| 20260506153341 | 69 | 232 | 5.2 | 12.2 | 0.00 | 0.00 | 0.00 | 62 | 1012.2 |
| 20260506152837 | 69 | 122 | 0.9 | 9.6 | 0.00 | 0.00 | 0.00 | 62 | 1012.2 |
| 20260506152335 | 69 | 160 | 3.5 | 6.1 | 0.00 | 0.00 | 0.00 | 60 | 1012.6 |
| 20260506151833 | 70 | 330 | 5.2 | 7.8 | 0.00 | 0.00 | 0.00 | 60 | 1012.3 |
| 20260506151329 | 70 | 213 | 1.7 | 7.8 | 0.00 | 0.00 | 0.00 | 58 | 1012.1 |
| 20260506150827 | 71 | 188 | 7.8 | 13.9 | 0.00 | 0.00 | 0.00 | 57 | 1012.0 |
| 20260506150323 | 70 | 186 | 1.7 | 3.5 | 0.00 | 0.00 | 0.00 | 59 | 1012.1 |
| 20260506145820 | 70 | 234 | 5.2 | 8.7 | 0.00 | 0.00 | 0.00 | 58 | 1012.1 |
| 20260506145316 | 69 | 177 | 0.9 | 8.7 | 0.00 | 0.00 | 0.00 | 59 | 1012.4 |
| 20260506144814 | 69 | 208 | 1.7 | 7.0 | 0.00 | 0.00 | 0.00 | 59 | 1012.4 |
| 20260506144311 | 69 | 105 | 1.7 | 7.0 | 0.00 | 0.00 | 0.00 | 59 | 1012.7 |
| 20260506143809 | 69 | 54 | 1.7 | 5.2 | 0.00 | 0.00 | 0.00 | 59 | 1012.5 |
| 20260506143306 | 69 | 218 | 2.6 | 6.1 | 0.00 | 0.00 | 0.00 | 59 | 1012.6 |
| 20260506142804 | 70 | 250 | 5.2 | 8.7 | 0.00 | 0.00 | 0.00 | 58 | 1012.4 |
| 20260506142302 | 70 | 255 | 5.2 | 11.3 | 0.00 | 0.00 | 0.00 | 58 | 1012.3 |
| 20260506141800 | 70 | 149 | 0.9 | 8.7 | 0.00 | 0.00 | 0.00 | 58 | 1012.4 |
| 20260506141258 | 71 | 238 | 4.3 | 9.6 | 0.00 | 0.00 | 0.00 | 57 | 1012.1 |
| 20260506140755 | 70 | 265 | 3.5 | 11.3 | 0.00 | 0.00 | 0.00 | 58 | 1012.3 |
| 20260506140252 | 70 | 132 | 3.5 | 7.0 | 0.00 | 0.00 | 0.00 | 59 | 1012.1 |
| 20260506135749 | 69 | 109 | 4.3 | 7.8 | 0.00 | 0.00 | 0.00 | 59 | 1012.1 |
| 20260506135245 | 69 | 150 | 0.9 | 11.3 | 0.00 | 0.00 | 0.00 | 60 | 1012.1 |
| 20260506134742 | 69 | 329 | 3.5 | 7.8 | 0.00 | 0.00 | 0.00 | 60 | 1012.1 |
| 20260506134238 | 69 | 189 | 3.5 | 13.9 | 0.00 | 0.00 | 0.00 | 60 | 1012.3 |
| 20260506133736 | 69 | 231 | 1.7 | 6.1 | 0.00 | 0.00 | 0.00 | 60 | 1012.1 |
| 20260506133232 | 69 | 276 | 5.2 | 7.8 | 0.00 | 0.00 | 0.00 | 59 | 1012.1 |
| 20260506132729 | 69 | 231 | 7.0 | 13.0 | 0.00 | 0.00 | 0.00 | 59 | 1012.4 |
| 20260506132226 | 69 | 266 | 2.6 | 12.2 | 0.00 | 0.00 | 0.00 | 59 | 1012.4 |
| 20260506131724 | 69 | 252 | 3.5 | 11.3 | 0.00 | 0.00 | 0.00 | 59 | 1012.4 |
| 20260506131220 | 70 | 176 | 3.5 | 13.0 | 0.00 | 0.00 | 0.00 | 60 | 1012.5 |
| 20260506130717 | 70 | 186 | 3.5 | 6.1 | 0.00 | 0.00 | 0.00 | 59 | 1012.6 |
| 20260506130214 | 71 | 307 | 5.2 | 11.3 | 0.00 | 0.00 | 0.00 | 58 | 1012.4 |
| 20260506125712 | 71 | 245 | 6.1 | 9.6 | 0.00 | 0.00 | 0.00 | 58 | 1012.4 |
| 20260506125209 | 70 | 185 | 3.5 | 9.6 | 0.00 | 0.00 | 0.00 | 59 | 1012.6 |
| 20260506124707 | 69 | 218 | 5.2 | 7.0 | 0.00 | 0.00 | 0.00 | 61 | 1012.6 |
| 20260506124205 | 68 | 269 | 4.3 | 14.8 | 0.00 | 0.00 | 0.00 | 62 | 1012.5 |
| 20260506123702 | 69 | 188 | 2.6 | 13.0 | 0.00 | 0.00 | 0.00 | 62 | 1012.5 |
| 20260506123201 | 69 | 102 | 2.6 | 7.8 | 0.00 | 0.00 | 0.00 | 62 | 1012.3 |
| 20260506122657 | 68 | 239 | 4.3 | 8.7 | 0.00 | 0.00 | 0.00 | 64 | 1012.3 |
| 20260506122155 | 68 | 265 | 5.2 | 7.0 | 0.00 | 0.00 | 0.00 | 63 | 1012.3 |
| 20260506121653 | 68 | 169 | 3.5 | 7.8 | 0.00 | 0.00 | 0.00 | 64 | 1012.3 |
| 20260506121148 | 67 | 147 | 4.3 | 7.0 | 0.00 | 0.00 | 0.00 | 65 | 1012.6 |
| 20260506120647 | 66 | 202 | 3.5 | 5.2 | 0.00 | 0.00 | 0.00 | 67 | 1012.4 |
| 20260506120144 | 66 | 163 | 2.6 | 8.7 | 0.00 | 0.00 | 0.00 | 67 | 1012.9 |
| 20260506115642 | 66 | 178 | 10.4 | 13.9 | 0.00 | 0.00 | 0.00 | 67 | 1012.5 |
| 20260506115140 | 66 | 202 | 7.8 | 9.6 | 0.00 | 0.00 | 0.00 | 67 | 1012.6 |
| 20260506114637 | 66 | 123 | 3.5 | 6.1 | 0.00 | 0.00 | 0.00 | 67 | 1012.6 |
| 20260506114135 | 66 | 107 | 1.7 | 6.1 | 0.00 | 0.00 | 0.00 | 68 | 1012.8 |
| 20260506113633 | 66 | 255 | 4.3 | 6.1 | 0.00 | 0.00 | 0.00 | 68 | 1012.8 |
| 20260506113130 | 66 | 145 | 0.9 | 3.5 | 0.00 | 0.00 | 0.00 | 68 | 1012.6 |
| 20260506112626 | 66 | 190 | 2.6 | 12.2 | 0.00 | 0.00 | 0.00 | 68 | 1012.7 |
| 20260506112124 | 66 | 197 | 2.6 | 11.3 | 0.00 | 0.00 | 0.00 | 68 | 1012.6 |
| 20260506111621 | 66 | 165 | 1.7 | 6.1 | 0.00 | 0.00 | 0.00 | 68 | 1012.5 |
| 20260506111119 | 66 | 223 | 5.2 | 7.8 | 0.00 | 0.00 | 0.00 | 67 | 1012.6 |
| 20260506110616 | 66 | 156 | 1.7 | 6.1 | 0.00 | 0.00 | 0.00 | 68 | 1012.8 |
| 20260506110114 | 65 | 170 | 2.6 | 7.8 | 0.00 | 0.00 | 0.00 | 68 | 1012.6 |
| 20260506105610 | 65 | 246 | 1.7 | 7.0 | 0.00 | 0.00 | 0.00 | 69 | 1012.5 |
| 20260506105107 | 65 | 169 | 0.9 | 2.6 | 0.00 | 0.00 | 0.00 | 69 | 1012.5 |
| 20260506104605 | 65 | 169 | 1.7 | 8.7 | 0.00 | 0.00 | 0.00 | 69 | 1012.5 |
| 20260506104102 | 65 | 221 | 2.6 | 6.1 | 0.00 | 0.00 | 0.00 | 70 | 1012.4 |
| 20260506103559 | 65 | 193 | 4.3 | 8.7 | 0.00 | 0.00 | 0.00 | 70 | 1012.5 |
| 20260506103056 | 65 | 195 | 2.6 | 12.2 | 0.00 | 0.00 | 0.00 | 71 | 1012.5 |
| 20260506102554 | 64 | 126 | 1.7 | 5.2 | 0.00 | 0.00 | 0.00 | 71 | 1012.6 |
| 20260506102052 | 64 | 161 | 4.3 | 6.1 | 0.00 | 0.00 | 0.00 | 71 | 1012.6 |
| 20260506101548 | 64 | 170 | 0.9 | 5.2 | 0.00 | 0.00 | 0.00 | 72 | 1012.5 |
| 20260506101045 | 64 | 211 | 4.3 | 7.8 | 0.00 | 0.00 | 0.00 | 72 | 1012.6 |
| 20260506100543 | 64 | 264 | 1.7 | 5.2 | 0.00 | 0.00 | 0.00 | 72 | 1012.5 |
| 20260506100041 | 64 | 105 | 1.7 | 5.2 | 0.00 | 0.00 | 0.00 | 72 | 1012.5 |
| 20260506095540 | 64 | 144 | 3.5 | 7.8 | 0.00 | 0.00 | 0.00 | 72 | 1012.3 |
| 20260506095036 | 64 | 132 | 5.2 | 7.8 | 0.00 | 0.00 | 0.00 | 72 | 1012.4 |
| 20260506094534 | 64 | 210 | 1.7 | 5.2 | 0.00 | 0.00 | 0.00 | 72 | 1012.3 |
| 20260506094031 | 64 | 119 | 4.3 | 7.8 | 0.00 | 0.00 | 0.00 | 73 | 1012.5 |
| 20260506093530 | 65 | 177 | 2.6 | 7.8 | 0.00 | 0.00 | 0.00 | 72 | 1012.4 |
| 20260506093027 | 64 | 108 | 3.5 | 8.7 | 0.00 | 0.00 | 0.00 | 72 | 1012.6 |
| 20260506092524 | 65 | 105 | 4.3 | 7.0 | 0.00 | 0.00 | 0.00 | 72 | 1012.3 |
| 20260506092021 | 65 | 222 | 4.3 | 6.1 | 0.00 | 0.00 | 0.00 | 73 | 1012.4 |
| 20260506091520 | 65 | 159 | 1.7 | 7.0 | 0.00 | 0.00 | 0.00 | 72 | 1012.4 |
| 20260506091016 | 64 | 198 | 6.1 | 7.0 | 0.00 | 0.00 | 0.00 | 73 | 1012.4 |
| 20260506090514 | 64 | 202 | 2.6 | 5.2 | 0.00 | 0.00 | 0.00 | 73 | 1012.7 |
| 20260506090010 | 65 | 151 | 3.5 | 6.1 | 0.00 | 0.00 | 0.00 | 73 | 1012.6 |
| 20260506085507 | 65 | 184 | 3.5 | 5.2 | 0.00 | 0.00 | 0.00 | 72 | 1012.6 |
| 20260506085003 | 65 | 152 | 1.7 | 7.0 | 0.00 | 0.00 | 0.00 | 72 | 1012.4 |
| 20260506084500 | 65 | 213 | 2.6 | 3.5 | 0.00 | 0.00 | 0.00 | 73 | 1012.6 |
| 20260506083956 | 65 | 157 | 2.6 | 7.8 | 0.00 | 0.00 | 0.00 | 73 | 1012.7 |
| 20260506083454 | 65 | 123 | 4.3 | 7.8 | 0.00 | 0.00 | 0.00 | 73 | 1012.6 |
| 20260506082951 | 65 | 185 | 2.6 | 7.8 | 0.00 | 0.00 | 0.00 | 73 | 1012.8 |
| 20260506082448 | 65 | 212 | 0.9 | 2.6 | 0.00 | 0.00 | 0.00 | 73 | 1012.7 |
| 20260506081943 | 65 | 88 | 4.3 | 7.0 | 0.00 | 0.00 | 0.00 | 73 | 1012.8 |
| 20260506081442 | 65 | 204 | 1.7 | 6.1 | 0.00 | 0.00 | 0.00 | 73 | 1012.8 |
| 20260506080939 | 65 | 124 | 0.9 | 3.5 | 0.00 | 0.00 | 0.00 | 73 | 1012.8 |
| 20260506080436 | 65 | 206 | 1.7 | 3.5 | 0.00 | 0.00 | 0.00 | 73 | 1012.9 |
| 20260506073420 | 66 | 102 | 0.0 | 7.0 | 0.00 | 0.00 | 0.00 | 72 | 1012.7 |
| 20260506072917 | 66 | 130 | 2.6 | 6.1 | 0.00 | 0.00 | 0.00 | 72 | 1012.9 |
| 20260506072414 | 66 | 258 | 5.2 | 7.8 | 0.00 | 0.00 | 0.00 | 71 | 1012.8 |
| 20260506071912 | 66 | 229 | 1.7 | 6.1 | 0.00 | 0.00 | 0.00 | 71 | 1012.7 |
| 20260506071410 | 66 | 134 | 2.6 | 8.7 | 0.00 | 0.00 | 0.00 | 71 | 1012.8 |
| 20260506070906 | 66 | 176 | 3.5 | 3.5 | 0.00 | 0.00 | 0.00 | 71 | 1012.7 |
| 20260506070403 | 66 | 127 | 4.3 | 9.6 | 0.00 | 0.00 | 0.00 | 71 | 1013.0 |
| 20260506062340 | 67 | 179 | 4.3 | 7.0 | 0.00 | 0.00 | 0.00 | 70 | 1012.9 |
| 20260506061836 | 67 | 234 | 2.6 | 7.8 | 0.00 | 0.00 | 0.00 | 70 | 1013.1 |
| 20260506061333 | 67 | 282 | 3.5 | 9.6 | 0.00 | 0.00 | 0.00 | 69 | 1012.9 |
| 20260506060831 | 67 | 169 | 4.3 | 8.7 | 0.00 | 0.00 | 0.00 | 69 | 1013.0 |
| 20260506060329 | 67 | 171 | 4.3 | 6.1 | 0.00 | 0.00 | 0.00 | 69 | 1013.0 |
| 20260506051301 | 68 | 290 | 2.6 | 6.1 | 0.00 | 0.00 | 0.00 | 66 | 1013.4 |
| 20260506050759 | 68 | 213 | 3.5 | 6.1 | 0.00 | 0.00 | 0.00 | 66 | 1013.4 |
| 20260506050256 | 68 | 123 | 0.9 | 1.7 | 0.00 | 0.00 | 0.00 | 66 | 1013.5 |
| 20260506044746 | 68 | 285 | 2.6 | 7.0 | 0.00 | 0.00 | 0.00 | 66 | 1013.4 |
| 20260506044244 | 68 | 14 | 0.9 | 6.1 | 0.00 | 0.00 | 0.00 | 65 | 1013.5 |
| 20260506043741 | 68 | 184 | 2.6 | 5.2 | 0.00 | 0.00 | 0.00 | 65 | 1013.3 |
| 20260506043238 | 68 | 176 | 0.9 | 7.8 | 0.00 | 0.00 | 0.00 | 64 | 1013.2 |
| 20260506042737 | 68 | 169 | 6.1 | 8.7 | 0.00 | 0.00 | 0.00 | 64 | 1013.3 |
| 20260506042235 | 68 | 163 | 2.6 | 7.8 | 0.00 | 0.00 | 0.00 | 64 | 1013.4 |
| 20260506041733 | 68 | 133 | 4.3 | 9.6 | 0.00 | 0.00 | 0.00 | 64 | 1013.1 |
| 20260506041230 | 68 | 179 | 1.7 | 2.6 | 0.00 | 0.00 | 0.00 | 63 | 1013.5 |
| 20260506040727 | 68 | 99 | 4.3 | 7.0 | 0.00 | 0.00 | 0.00 | 63 | 1013.1 |
| 20260506040224 | 68 | 192 | 5.2 | 9.6 | 0.00 | 0.00 | 0.00 | 63 | 1013.5 |
| 20260506035721 | 68 | 222 | 2.6 | 7.0 | 0.00 | 0.00 | 0.00 | 63 | 1013.1 |
| 20260506035218 | 68 | 245 | 2.6 | 3.5 | 0.00 | 0.00 | 0.00 | 62 | 1013.1 |
| 20260506034715 | 68 | 91 | 1.7 | 5.2 | 0.00 | 0.00 | 0.00 | 62 | 1013.2 |
| 20260506034212 | 69 | 194 | 1.7 | 12.2 | 0.00 | 0.00 | 0.00 | 62 | 1013.3 |
| 20260506033709 | 69 | 168 | 3.5 | 11.3 | 0.00 | 0.00 | 0.00 | 61 | 1013.3 |
| 20260506033206 | 69 | 179 | 3.5 | 5.2 | 0.00 | 0.00 | 0.00 | 61 | 1013.1 |
| 20260506032703 | 69 | 243 | 5.2 | 13.9 | 0.00 | 0.00 | 0.00 | 60 | 1013.2 |
| 20260506032200 | 69 | 94 | 0.9 | 7.8 | 0.00 | 0.00 | 0.00 | 60 | 1013.1 |
| 20260506031657 | 69 | 267 | 6.1 | 14.8 | 0.00 | 0.00 | 0.00 | 60 | 1013.4 |
| 20260506031154 | 69 | 152 | 5.2 | 9.6 | 0.00 | 0.00 | 0.00 | 60 | 1013.3 |
| 20260506030653 | 69 | 193 | 3.5 | 5.2 | 0.00 | 0.00 | 0.00 | 60 | 1013.2 |
| 20260506030149 | 69 | 183 | 7.0 | 9.6 | 0.00 | 0.00 | 0.00 | 59 | 1013.3 |
| 20260506025646 | 69 | 184 | 1.7 | 7.0 | 0.00 | 0.00 | 0.00 | 59 | 1013.4 |
| 20260506025142 | 70 | 153 | 1.7 | 7.0 | 0.00 | 0.00 | 0.00 | 58 | 1013.4 |
| 20260506024640 | 70 | 203 | 3.5 | 5.2 | 0.00 | 0.00 | 0.00 | 58 | 1013.4 |
| 20260506024136 | 70 | 198 | 6.1 | 11.3 | 0.00 | 0.00 | 0.00 | 57 | 1013.3 |
| 20260506023632 | 70 | 204 | 5.2 | 12.2 | 0.00 | 0.00 | 0.00 | 57 | 1013.4 |
| 20260506023129 | 70 | 136 | 5.2 | 12.2 | 0.00 | 0.00 | 0.00 | 56 | 1013.4 |
| 20260506022627 | 70 | 192 | 5.2 | 9.6 | 0.00 | 0.00 | 0.00 | 56 | 1013.5 |
| 20260506022124 | 70 | 119 | 2.6 | 12.2 | 0.00 | 0.00 | 0.00 | 55 | 1013.4 |
| 20260506021622 | 71 | 189 | 4.3 | 11.3 | 0.00 | 0.00 | 0.00 | 54 | 1013.4 |
| 20260506021119 | 71 | 151 | 3.5 | 8.7 | 0.00 | 0.00 | 0.00 | 54 | 1013.4 |
| 20260506020616 | 71 | 211 | 3.5 | 9.6 | 0.00 | 0.00 | 0.00 | 54 | 1013.5 |
| 20260506020114 | 71 | 229 | 1.7 | 7.0 | 0.00 | 0.00 | 0.00 | 54 | 1013.4 |
| 20260506015611 | 71 | 119 | 3.5 | 6.1 | 0.00 | 0.00 | 0.00 | 53 | 1013.3 |
| 20260506015108 | 71 | 153 | 5.2 | 7.8 | 0.00 | 0.00 | 0.00 | 53 | 1013.2 |
| 20260506014606 | 71 | 191 | 4.3 | 11.3 | 0.00 | 0.00 | 0.00 | 52 | 1013.2 |
| 20260506014100 | 71 | 227 | 4.3 | 15.6 | 0.00 | 0.00 | 0.00 | 52 | 1013.2 |
| 20260506013559 | 71 | 161 | 7.8 | 12.2 | 0.00 | 0.00 | 0.00 | 52 | 1013.1 |
| 20260506013055 | 71 | 125 | 1.7 | 6.1 | 0.00 | 0.00 | 0.00 | 53 | 1013.0 |
| 20260506012552 | 71 | 163 | 3.5 | 7.0 | 0.00 | 0.00 | 0.00 | 52 | 1013.0 |
| 20260506012048 | 71 | 238 | 5.2 | 9.6 | 0.00 | 0.00 | 0.00 | 52 | 1013.0 |
| 20260506011546 | 72 | 129 | 5.2 | 9.6 | 0.00 | 0.00 | 0.00 | 52 | 1012.9 |
| 20260506011042 | 72 | 228 | 7.0 | 13.9 | 0.00 | 0.00 | 0.00 | 52 | 1012.9 |
| 20260506010542 | 71 | 219 | 3.5 | 13.0 | 0.00 | 0.00 | 0.00 | 52 | 1012.7 |
| 20260506010038 | 72 | 104 | 2.6 | 3.5 | 0.00 | 0.00 | 0.00 | 52 | 1012.7 |
| 20260506005535 | 72 | 224 | 1.7 | 7.8 | 0.00 | 0.00 | 0.00 | 52 | 1013.0 |
| 20260506005031 | 72 | 223 | 7.0 | 9.6 | 0.00 | 0.00 | 0.00 | 52 | 1012.8 |
| 20260506004529 | 72 | 150 | 5.2 | 7.0 | 0.00 | 0.00 | 0.00 | 52 | 1012.7 |
| 20260506004025 | 72 | 151 | 9.6 | 13.0 | 0.00 | 0.00 | 0.00 | 51 | 1012.8 |
| 20260506003522 | 73 | 244 | 3.5 | 7.0 | 0.00 | 0.00 | 0.00 | 51 | 1012.7 |
| 20260506003018 | 73 | 224 | 7.8 | 13.9 | 0.00 | 0.00 | 0.00 | 50 | 1012.6 |
| 20260506002514 | 73 | 211 | 8.7 | 12.2 | 0.00 | 0.00 | 0.00 | 50 | 1012.3 |
| 20260506002009 | 73 | 128 | 1.7 | 6.1 | 0.00 | 0.00 | 0.00 | 48 | 1012.6 |
| 20260506001506 | 74 | 213 | 3.5 | 7.0 | 0.00 | 0.00 | 0.00 | 47 | 1012.3 |
| 20260506001004 | 75 | 125 | 2.6 | 5.2 | 0.00 | 0.00 | 0.00 | 45 | 1012.4 |
| 20260506000501 | 75 | 104 | 3.5 | 7.0 | 0.00 | 0.00 | 0.00 | 43 | 1012.3 |
| 20260505235958 | 75 | 167 | 5.2 | 7.8 | 0.00 | 0.00 | 0.00 | 41 | 1012.2 |
| 20260505235456 | 76 | 228 | 2.6 | 7.8 | 0.00 | 0.00 | 0.00 | 41 | 1012.3 |
| 20260505234952 | 76 | 84 | 2.6 | 6.1 | 0.00 | 0.00 | 0.00 | 40 | 1012.1 |
| 20260505234450 | 77 | 198 | 1.7 | 9.6 | 0.00 | 0.00 | 0.00 | 39 | 1012.0 |
| 20260505233946 | 77 | 103 | 1.7 | 5.2 | 0.00 | 0.00 | 0.00 | 38 | 1011.9 |
| 20260505233444 | 78 | 180 | 1.7 | 8.7 | 0.00 | 0.00 | 0.00 | 37 | 1012.0 |
| 20260505232941 | 78 | 215 | 7.0 | 8.7 | 0.00 | 0.00 | 0.00 | 36 | 1011.9 |
| 20260505232440 | 78 | 249 | 4.3 | 8.7 | 0.00 | 0.00 | 0.00 | 35 | 1011.7 |
| 20260505231936 | 78 | 106 | 2.6 | 5.2 | 0.00 | 0.00 | 0.00 | 36 | 1011.8 |
| 20260505231433 | 78 | 168 | 1.7 | 7.0 | 0.00 | 0.00 | 0.00 | 35 | 1011.6 |
| 20260505230932 | 78 | 109 | 1.7 | 2.6 | 0.00 | 0.00 | 0.00 | 35 | 1011.6 |
| 20260505230429 | 79 | 206 | 5.2 | 8.7 | 0.00 | 0.00 | 0.00 | 35 | 1011.6 |
| 20260505225925 | 79 | 214 | 3.5 | 7.0 | 0.00 | 0.00 | 0.00 | 35 | 1011.6 |
| 20260505225422 | 79 | 266 | 4.3 | 7.0 | 0.00 | 0.00 | 0.00 | 35 | 1011.6 |
| 20260505224918 | 80 | 179 | 5.2 | 12.2 | 0.00 | 0.00 | 0.00 | 34 | 1011.6 |
| 20260505224415 | 80 | 190 | 2.6 | 8.7 | 0.00 | 0.00 | 0.00 | 35 | 1011.6 |
| 20260505223912 | 80 | 167 | 2.6 | 12.2 | 0.00 | 0.00 | 0.00 | 34 | 1011.5 |
| 20260505223409 | 80 | 202 | 6.1 | 7.8 | 0.00 | 0.00 | 0.00 | 34 | 1011.6 |
| 20260505222905 | 80 | 198 | 7.0 | 9.6 | 0.00 | 0.00 | 0.00 | 33 | 1011.4 |
| 20260505222402 | 81 | 151 | 2.6 | 13.9 | 0.00 | 0.00 | 0.00 | 33 | 1011.5 |
| 20260505221858 | 81 | 210 | 4.3 | 11.3 | 0.00 | 0.00 | 0.00 | 33 | 1011.3 |
| 20260505221355 | 81 | 133 | 8.7 | 13.0 | 0.00 | 0.00 | 0.00 | 32 | 1011.4 |
| 20260505220852 | 82 | 189 | 0.9 | 11.3 | 0.00 | 0.00 | 0.00 | 32 | 1011.3 |
| 20260505220349 | 82 | 283 | 4.3 | 16.5 | 0.00 | 0.00 | 0.00 | 30 | 1011.2 |
| 20260505215847 | 82 | 264 | 5.2 | 12.2 | 0.00 | 0.00 | 0.00 | 30 | 1011.3 |
| 20260505215345 | 82 | 191 | 4.3 | 12.2 | 0.00 | 0.00 | 0.00 | 30 | 1011.4 |
| 20260505214843 | 82 | 159 | 2.6 | 6.1 | 0.00 | 0.00 | 0.00 | 30 | 1011.4 |
| 20260505214340 | 83 | 140 | 7.0 | 13.9 | 0.00 | 0.00 | 0.00 | 29 | 1011.3 |
| 20260505213837 | 83 | 204 | 1.7 | 8.7 | 0.00 | 0.00 | 0.00 | 28 | 1011.0 |
| 20260505213335 | 83 | 268 | 5.2 | 13.0 | 0.00 | 0.00 | 0.00 | 26 | 1011.3 |
| 20260505212831 | 83 | 191 | 7.0 | 14.8 | 0.00 | 0.00 | 0.00 | 25 | 1011.2 |
| 20260505212328 | 83 | 124 | 3.5 | 12.2 | 0.00 | 0.00 | 0.00 | 26 | 1011.2 |
| 20260505211823 | 83 | 244 | 9.6 | 14.8 | 0.00 | 0.00 | 0.00 | 25 | 1011.0 |
| 20260505211321 | 83 | 141 | 0.9 | 13.9 | 0.00 | 0.00 | 0.00 | 26 | 1011.0 |
| 20260505210818 | 84 | 190 | 7.0 | 12.2 | 0.00 | 0.00 | 0.00 | 25 | 1011.0 |
| 20260505210315 | 83 | 234 | 2.6 | 9.6 | 0.00 | 0.00 | 0.00 | 25 | 1010.8 |
| 20260505205812 | 84 | 119 | 2.6 | 14.8 | 0.00 | 0.00 | 0.00 | 25 | 1010.9 |
| 20260505205310 | 84 | 112 | 2.6 | 16.5 | 0.00 | 0.00 | 0.00 | 25 | 1010.9 |
| 20260505204806 | 84 | 231 | 2.6 | 8.7 | 0.00 | 0.00 | 0.00 | 25 | 1011.1 |
| 20260505204304 | 84 | 85 | 0.9 | 5.2 | 0.00 | 0.00 | 0.00 | 30 | 1010.7 |
| 20260505203801 | 84 | 204 | 9.6 | 13.9 | 0.00 | 0.00 | 0.00 | 29 | 1011.0 |
| 20260505203258 | 84 | 278 | 2.6 | 12.2 | 0.00 | 0.00 | 0.00 | 30 | 1011.0 |
| 20260505202754 | 84 | 233 | 5.2 | 20.9 | 0.00 | 0.00 | 0.00 | 30 | 1010.8 |
| 20260505202251 | 84 | 230 | 7.0 | 9.6 | 0.00 | 0.00 | 0.00 | 31 | 1011.0 |
| 20260505201747 | 84 | 237 | 8.7 | 13.0 | 0.00 | 0.00 | 0.00 | 30 | 1010.9 |
| 20260505201245 | 84 | 211 | 7.0 | 20.9 | 0.00 | 0.00 | 0.00 | 30 | 1011.1 |
| 20260505200743 | 84 | 210 | 5.2 | 11.3 | 0.00 | 0.00 | 0.00 | 31 | 1010.9 |
| 20260505200240 | 84 | 102 | 1.7 | 8.7 | 0.00 | 0.00 | 0.00 | 32 | 1011.0 |
| 20260505195735 | 84 | 173 | 5.2 | 9.6 | 0.00 | 0.00 | 0.00 | 31 | 1010.9 |
| 20260505195233 | 84 | 200 | 7.0 | 14.8 | 0.00 | 0.00 | 0.00 | 31 | 1011.2 |
| 20260505194730 | 85 | 143 | 4.3 | 8.7 | 0.00 | 0.00 | 0.00 | 31 | 1011.0 |
| 20260505194226 | 84 | 221 | 3.5 | 7.0 | 0.00 | 0.00 | 0.00 | 31 | 1011.1 |
| 20260505193722 | 84 | 285 | 6.1 | 13.9 | 0.00 | 0.00 | 0.00 | 31 | 1011.2 |
| 20260505193220 | 84 | 270 | 11.3 | 15.6 | 0.00 | 0.00 | 0.00 | 31 | 1011.2 |